This is the latest recevied weather packets stored in our database for station/object JR4VEV-13. If no packets are shown the sender has not sent any weather packets the latest 10 day(s).
| Time | Temp. | Humidity | Pressure | Rain* | Wind** | Luminosity | Snow |
|---|---|---|---|---|---|---|---|
| 1776909505 | 12.22° C | 96% | 1008.4 hPa | 4.32 mm | - | - | - |
| 1776908904 | 12.22° C | 96% | 1008.5 hPa | 3.56 mm | - | - | - |
| 1776908304 | 12.22° C | 96% | 1008.4 hPa | 3.56 mm | - | - | - |
| 1776907705 | 12.22° C | 97% | 1008.7 hPa | 3.3 mm | - | - | - |
| 1776907105 | 12.22° C | 96% | 1008.9 hPa | 3.81 mm | - | - | - |
| 1776906504 | 12.22° C | 97% | 1008.9 hPa | 4.32 mm | - | - | - |
| 1776905904 | 12.22° C | 97% | 1008.8 hPa | 4.06 mm | - | - | - |
| 1776905303 | 11.67° C | 96% | 1008.9 hPa | 3.56 mm | - | - | - |
| 1776904705 | 11.67° C | 96% | 1009.1 hPa | 3.05 mm | - | - | - |
| 1776904105 | 11.67° C | 96% | 1008.9 hPa | 3.05 mm | - | - | - |
| 1776903505 | 11.11° C | 96% | 1009.1 hPa | 2.54 mm | - | - | - |
| 1776902904 | 11.11° C | 96% | 1009.1 hPa | 2.03 mm | - | - | - |
| 1776902304 | 11.11° C | 96% | 1009.1 hPa | 2.29 mm | - | - | - |
| 1776901704 | 11.11° C | 96% | 1009.2 hPa | 2.79 mm | - | - | - |
| 1776900659 | 10.56° C | 96% | 1009.4 hPa | 3.3 mm | - | - | - |
| 1776900060 | 10.56° C | 96% | 1009.6 hPa | 3.3 mm | - | - | - |
| 1776899460 | 10.56° C | 96% | 1009.6 hPa | 3.3 mm | - | - | - |
| 1776898894 | 10.56° C | 96% | 1009.7 hPa | 3.05 mm | - | - | - |
| 1776898860 | 10.56° C | 96% | 1009.8 hPa | 3.05 mm | - | - | - |
| 1776898261 | 10.56° C | 96% | 1010.3 hPa | 3.05 mm | - | - | - |
| 1776897660 | 10.56° C | 95% | 1010.3 hPa | 2.79 mm | - | - | - |
| 1776897059 | 10° C | 95% | 1010.3 hPa | 3.3 mm | - | - | - |
| 1776896461 | 10° C | 96% | 1010.3 hPa | 3.3 mm | - | - | - |
| 1776895860 | 10° C | 95% | 1010.3 hPa | 3.05 mm | - | - | - |
| 1776895261 | 10.56° C | 96% | 1010.4 hPa | 3.05 mm | - | - | - |
* Rain latest hour (hover to see other rain measurements)
** Current wind speed in m/s (hover to see current wind gust speed)